Overview Statistics Trail Chart Weather Telemetry Raw packets
 

This is the latest recevied weather packets stored in our database for station/object DL8BGD. If no packets are shown the sender has not sent any weather packets the latest 10 day(s).

<< 6 7 8 9 10 11 12 >>
Time Temp. Humidity Pressure Rain* Wind** Luminosity Snow
1788112244 21.67° C 62% 1019.7 hPa 0 mm - - -
1788111643 21.67° C 61% 1019.6 hPa 0 mm - - -
1788111043 22.22° C 60% 1019.5 hPa 0 mm - - -
1788110442 22.78° C 59% 1019.5 hPa 0 mm - - -
1788109842 23.33° C 58% 1019.3 hPa 0 mm - - -
1788109242 23.33° C 56% 1019.3 hPa 0 mm - - -
1788108641 23.89° C 54% 1019.2 hPa 0 mm - - -
1788108041 24.44° C 54% 1019.2 hPa 0 mm - - -
1788107441 25° C 51% 1019.1 hPa 0 mm - - -
1788106840 25.56° C 47% 1019.1 hPa 0 mm - - -
1788106240 25.56° C 44% 1019.2 hPa 0 mm - - -
1788105640 25.56° C 44% 1019.2 hPa 0 mm - - -
1788105039 26.11° C 41% 1019.2 hPa 0 mm - - -
1788104439 26.11° C 39% 1019.2 hPa 0 mm - - -
1788103838 26.11° C 39% 1019.2 hPa 0 mm - - -
1788103238 26.11° C 39% 1019.2 hPa 0 mm - - -
1788102638 26.11° C 38% 1019.2 hPa 0 mm - - -
1788102037 26.11° C 38% 1019.1 hPa 0 mm - - -
1788101495 26.67° C 38% 1019.1 hPa 0 mm - - -
1788101437 26.67° C 38% 1019.1 hPa 0 mm - - -
1788100837 26.67° C 38% 1019.2 hPa 0 mm - - -
1788100236 26.67° C 39% 1019.2 hPa 0 mm - - -
1788099636 26.67° C 37% 1019.2 hPa 0 mm - - -
1788099036 26.67° C 37% 1019.2 hPa 0 mm - - -
1788098435 26.67° C 37% 1019.4 hPa 0 mm - - -

* Rain since midnight (hover to see other rain measurements)
** Current wind speed in m/s (hover to see current wind gust speed)